Houston, TX

8:19 PM CDT on June 26, 2017 (GMT -0500)
Hobby

Weather History for KHOU - April, 2014

Change the Weather History Date:

Thursday, April 10, 2014

  Actual Average Record
Temperature  
Mean Temperature 72 °F 68 °F  
Max Temperature 83 °F 79 °F 92 °F (1963)
Min Temperature 60 °F 58 °F 31 °F (1973)
Degree Days  
Heating Degree Days 0 2  
Month to date heating degree days 13 20  
Since 1 July heating degree days 1707 1349  
Cooling Degree Days 7 5  
Month to date cooling degree days 40 43  
Year to date cooling degree days 106 152  
Growing Degree Days 18 (Base 50)    
Moisture  
Dew Point 57 °F    
Average Humidity 58    
Maximum Humidity 84    
Minimum Humidity 31    
Precipitation  
Precipitation 0.00 in 0.11 in 2.57 in (2004)
Month to date precipitation 0.04 1.01  
Year to date precipitation 5.84 11.00  
Sea Level Pressure  
Sea Level Pressure 30.12 in    
Wind  
Wind Speed 9 mph (South)    
Max Wind Speed 22 mph    
Max Gust Speed 29 mph    
Visibility 10 miles    
Events      
T = Trace of Precipitation, MM = Missing Value Source: NWS Daily Summary

Daily Weather History Graph

Daily Weather History Graph

Search for Another Location

Airport or City:

Trip Planner

Search our weather history database for the weather conditions in past years. The results will help you decide how hot, cold, wet, or windy it might be!

Date:

Astronomy

Apr. 10, 2014 Rise Set
Actual Time 7:00 AM CDT 7:45 PM CDT
Civil Twilight 6:35 AM CDT 8:09 PM CDT
Nautical Twilight 6:07 AM CDT 8:37 PM CDT
Astronomical Twilight 5:38 AM CDT 9:07 PM CDT
Moon 3:47 PM CDT (4/10) 4:04 AM CDT (4/10)
Length of Visible Light 13h 33m
Length of Day
12h 44m
Waxing Gibbous, 80% of the Moon is Illuminated
Apr 10
Waxing Gibbous
Apr 15
Full
Apr 22
Last Quarter
Apr 29
New
May 6
First Quarter

Hourly Weather History & Observations

Time (CDT) Temp. Heat Index Dew Point Humidity Pressure Visibility Wind Dir Wind Speed Gust Speed Precip Events Conditions
12:53 AM 57.9 °F - 53.1 °F 84% 30.19 in 10.0 mi South 4.6 mph - N/A   Clear
1:53 AM 59.0 °F - 53.6 °F 82% 30.16 in 10.0 mi South 5.8 mph - N/A   Clear
2:53 AM 59.0 °F - 54.0 °F 83% 30.16 in 10.0 mi South 6.9 mph - N/A   Clear
3:53 AM 59.0 °F - 55.0 °F 87% 30.14 in 10.0 mi South 6.9 mph - N/A   Clear
4:53 AM 60.1 °F - 55.0 °F 83% 30.13 in 10.0 mi South 8.1 mph - N/A   Clear
5:53 AM 60.1 °F - 55.9 °F 86% 30.13 in 10.0 mi South 6.9 mph - N/A   Clear
6:53 AM 61.0 °F - 57.0 °F 87% 30.13 in 10.0 mi South 9.2 mph - N/A   Clear
7:53 AM 63.0 °F - 57.9 °F 84% 30.14 in 10.0 mi South 9.2 mph - N/A   Clear
8:53 AM 66.2 °F - 59.0 °F 78% 30.13 in 10.0 mi South 11.5 mph 19.6 mph N/A   Clear
9:53 AM 71.1 °F - 60.1 °F 68% 30.16 in 10.0 mi South 15.0 mph 23.0 mph N/A   Clear
10:53 AM 75.0 °F - 59.0 °F 57% 30.16 in 10.0 mi South 16.1 mph 20.7 mph N/A   Partly Cloudy
11:53 AM 78.1 °F - 60.1 °F 54% 30.16 in 10.0 mi South 16.1 mph 24.2 mph N/A   Scattered Clouds
12:53 PM 79.0 °F - 59.0 °F 50% 30.14 in 10.0 mi South 13.8 mph 23.0 mph N/A   Scattered Clouds
1:53 PM 79.0 °F - 57.0 °F 47% 30.12 in 10.0 mi South 17.3 mph 26.5 mph N/A   Scattered Clouds
2:53 PM 80.1 °F 80.6 °F 57.9 °F 47% 30.10 in 10.0 mi South 16.1 mph 26.5 mph N/A   Scattered Clouds
3:53 PM 79.0 °F - 57.9 °F 48% 30.08 in 10.0 mi South 17.3 mph 25.3 mph N/A   Scattered Clouds
4:53 PM 77.0 °F - 55.9 °F 48% 30.06 in 10.0 mi South 17.3 mph 26.5 mph N/A   Scattered Clouds
5:53 PM 75.0 °F - 57.9 °F 55% 30.06 in 10.0 mi South 17.3 mph 26.5 mph N/A   Scattered Clouds
6:53 PM 72.0 °F - 57.9 °F 61% 30.06 in 10.0 mi South 15.0 mph 23.0 mph N/A   Scattered Clouds
7:53 PM 68.0 °F - 57.9 °F 70% 30.06 in 10.0 mi South 9.2 mph - N/A   Scattered Clouds
8:53 PM 66.0 °F - 59.0 °F 78% 30.07 in 10.0 mi SSE 6.9 mph - N/A   Scattered Clouds
9:53 PM 64.0 °F - 57.9 °F 80% 30.09 in 10.0 mi SSE 8.1 mph - N/A   Scattered Clouds
10:53 PM 64.0 °F - 57.9 °F 80% 30.09 in 10.0 mi SSE 6.9 mph - N/A   Mostly Cloudy
11:53 PM 63.0 °F - 59.0 °F 87% 30.07 in 10.0 mi SSE 6.9 mph - N/A   Mostly Cloudy